| time (UTC) | temp F | wind direction | speed MPH | gust MPH | rain 1hr in | rain 24hr in | rain mn in | humidity % | barometer mb |
| 20260508172505 | 61 | 323 | 16.0 | 21.0 | 0.00 | 0.38 | 0.02 | 96 | 1005.1 |
| 20260508170504 | 61 | 314 | 16.0 | 22.0 | 0.00 | 0.38 | 0.02 | 96 | 1005.0 |
| 20260508170007 | 61 | 311 | 17.0 | 26.0 | 0.00 | 0.38 | 0.02 | 96 | 1005.2 |
| 20260508165507 | 61 | 320 | 18.0 | 26.0 | 0.00 | 0.38 | 0.02 | 96 | 1005.1 |
| 20260508163506 | 61 | 313 | 21.0 | 28.0 | 0.00 | 0.38 | 0.02 | 96 | 1004.9 |
| 20260508163007 | 61 | 318 | 20.0 | 29.0 | 0.00 | 0.38 | 0.02 | 96 | 1005.2 |
| 20260508162007 | 61 | 319 | 24.0 | 32.0 | 0.00 | 0.38 | 0.02 | 96 | 1005.0 |
| 20260508161007 | 61 | 320 | 24.0 | 31.0 | 0.00 | 0.38 | 0.02 | 97 | 1005.0 |
| 20260508160008 | 61 | 318 | 24.0 | 30.0 | 0.00 | 0.38 | 0.02 | 97 | 1005.0 |
| 20260508154507 | 61 | 323 | 20.0 | 29.0 | 0.00 | 0.38 | 0.02 | 97 | 1005.1 |
| 20260508153006 | 61 | 315 | 20.0 | 26.0 | 0.00 | 0.38 | 0.02 | 96 | 1005.2 |
| 20260508152508 | 61 | 321 | 17.0 | 24.0 | 0.00 | 0.38 | 0.02 | 96 | 1005.1 |
| 20260508151008 | 60 | 324 | 19.0 | 25.0 | 0.00 | 0.38 | 0.02 | 96 | 1005.5 |
| 20260508145507 | 60 | 322 | 20.0 | 24.0 | 0.00 | 0.38 | 0.02 | 96 | 1005.5 |
| 20260508145007 | 60 | 320 | 21.0 | 28.0 | 0.00 | 0.38 | 0.02 | 96 | 1005.6 |
| 20260508144507 | 60 | 329 | 21.0 | 29.0 | 0.00 | 0.38 | 0.02 | 96 | 1005.5 |
| 20260508143006 | 60 | 318 | 21.0 | 25.0 | 0.00 | 0.38 | 0.02 | 95 | 1005.8 |
| 20260508142507 | 60 | 323 | 23.0 | 31.0 | 0.00 | 0.38 | 0.02 | 95 | 1005.8 |
| 20260508141507 | 60 | 320 | 20.0 | 26.0 | 0.00 | 0.38 | 0.02 | 95 | 1006.0 |
| 20260508140508 | 60 | 324 | 25.0 | 33.0 | 0.00 | 0.38 | 0.02 | 95 | 1006.0 |
| 20260508134006 | 60 | 323 | 18.0 | 26.0 | 0.00 | 0.38 | 0.02 | 95 | 1006.1 |
| 20260508133508 | 59 | 317 | 18.0 | 22.0 | 0.00 | 0.38 | 0.02 | 96 | 1006.2 |
| 20260508132506 | 59 | 324 | 16.0 | 25.0 | 0.00 | 0.38 | 0.02 | 96 | 1006.1 |
| 20260508131506 | 59 | 322 | 18.0 | 25.0 | 0.00 | 0.38 | 0.02 | 97 | 1006.0 |
| 20260508131006 | 58 | 319 | 21.0 | 26.0 | 0.02 | 0.38 | 0.02 | 97 | 1006.1 |
| 20260508130508 | 58 | 320 | 16.0 | 24.0 | 0.02 | 0.38 | 0.02 | 98 | 1006.1 |
| 20260508130007 | 58 | 320 | 19.0 | 28.0 | 0.02 | 0.38 | 0.02 | 98 | 1006.2 |
| 20260508125008 | 58 | 318 | 16.0 | 22.0 | 0.04 | 0.38 | 0.02 | 98 | 1006.0 |
| 20260508123508 | 58 | 320 | 15.0 | 21.0 | 0.04 | 0.38 | 0.02 | 98 | 1006.2 |
| 20260508122506 | 58 | 317 | 15.0 | 20.0 | 0.04 | 0.37 | 0.02 | 98 | 1006.5 |
| 20260508122008 | 58 | 311 | 13.0 | 21.0 | 0.05 | 0.37 | 0.02 | 98 | 1006.5 |
| 20260508121508 | 58 | 310 | 15.0 | 22.0 | 0.06 | 0.37 | 0.02 | 98 | 1006.6 |
| 20260508121007 | 58 | 312 | 19.0 | 25.0 | 0.05 | 0.36 | 0.01 | 98 | 1006.7 |
| 20260508120506 | 58 | 307 | 21.0 | 31.0 | 0.07 | 0.36 | 0.00 | 98 | 1007.0 |
| 20260508115006 | 58 | 309 | 20.0 | 29.0 | 0.15 | 0.34 | 0.34 | 97 | 1006.7 |
| 20260508114508 | 59 | 308 | 24.0 | 32.0 | 0.17 | 0.34 | 0.34 | 97 | 1006.7 |
| 20260508112506 | 59 | 307 | 29.0 | 40.0 | 0.22 | 0.33 | 0.33 | 96 | 1007.1 |
| 20260508112006 | 60 | 309 | 28.0 | 36.0 | 0.22 | 0.33 | 0.33 | 97 | 1007.1 |
| 20260508111508 | 60 | 313 | 28.0 | 36.0 | 0.21 | 0.32 | 0.32 | 96 | 1007.1 |
| 20260508102505 | 63 | 11 | 14.0 | 21.0 | 0.01 | 0.11 | 0.11 | 97 | 1007.0 |
| 20260508101507 | 63 | 11 | 12.0 | 18.0 | 0.01 | 0.11 | 0.11 | 97 | 1007.1 |
| 20260508100007 | 63 | 11 | 14.0 | 23.0 | 0.02 | 0.11 | 0.11 | 97 | 1007.1 |
| 20260508095506 | 63 | 12 | 14.0 | 22.0 | 0.02 | 0.11 | 0.11 | 97 | 1007.0 |
| 20260508095006 | 63 | 12 | 15.0 | 21.0 | 0.02 | 0.11 | 0.11 | 97 | 1007.1 |
| 20260508094508 | 63 | 12 | 13.0 | 24.0 | 0.02 | 0.11 | 0.11 | 97 | 1007.5 |
| 20260508094006 | 63 | 12 | 12.0 | 23.0 | 0.02 | 0.11 | 0.11 | 97 | 1007.3 |
| 20260508093506 | 63 | 8 | 13.0 | 22.0 | 0.02 | 0.11 | 0.11 | 97 | 1007.2 |
| 20260508091507 | 63 | 7 | 15.0 | 23.0 | 0.02 | 0.10 | 0.10 | 97 | 1007.3 |
| 20260508091006 | 63 | 8 | 18.0 | 26.0 | 0.02 | 0.09 | 0.09 | 97 | 1007.2 |
| 20260508090506 | 63 | 13 | 17.0 | 29.0 | 0.02 | 0.09 | 0.09 | 96 | 1007.3 |
| 20260508083506 | 63 | 5 | 17.0 | 23.0 | 0.02 | 0.08 | 0.08 | 96 | 1007.5 |
| 20260508083007 | 63 | 357 | 16.0 | 23.0 | 0.02 | 0.08 | 0.08 | 96 | 1007.7 |
| 20260508082506 | 63 | 1 | 18.0 | 29.0 | 0.02 | 0.07 | 0.07 | 97 | 1007.8 |
| 20260508081006 | 63 | 337 | 16.0 | 29.0 | 0.02 | 0.07 | 0.07 | 97 | 1007.9 |
| 20260508080506 | 63 | 358 | 17.0 | 26.0 | 0.03 | 0.07 | 0.07 | 97 | 1007.8 |
| 20260508080008 | 63 | 0 | 13.0 | 25.0 | 0.03 | 0.07 | 0.07 | 97 | 1007.9 |
| 20260508074506 | 63 | 18 | 14.0 | 26.0 | 0.03 | 0.07 | 0.07 | 97 | 1007.5 |
| 20260508074007 | 63 | 2 | 14.0 | 30.0 | 0.02 | 0.06 | 0.06 | 97 | 1007.9 |
| 20260508072006 | 63 | 3 | 16.0 | 31.0 | 0.02 | 0.06 | 0.06 | 97 | 1007.9 |
| 20260508071505 | 64 | 4 | 17.0 | 26.0 | 0.02 | 0.06 | 0.06 | 97 | 1007.7 |
| 20260508070505 | 64 | 16 | 17.0 | 31.0 | 0.02 | 0.05 | 0.05 | 97 | 1007.6 |
| 20260508070006 | 64 | 12 | 16.0 | 25.0 | 0.01 | 0.04 | 0.04 | 97 | 1007.8 |
| 20260508064006 | 64 | 3 | 16.0 | 28.0 | 0.03 | 0.04 | 0.04 | 96 | 1008.3 |
| 20260508063508 | 64 | 8 | 18.0 | 28.0 | 0.03 | 0.04 | 0.04 | 96 | 1008.0 |
| 20260508061507 | 63 | 24 | 12.0 | 26.0 | 0.04 | 0.04 | 0.04 | 96 | 1008.0 |
| 20260508061008 | 63 | 16 | 12.0 | 29.0 | 0.04 | 0.04 | 0.04 | 96 | 1008.3 |
| 20260508055507 | 63 | 29 | 9.0 | 18.0 | 0.03 | 0.03 | 0.03 | 95 | 1008.1 |
| 20260508053006 | 64 | 37 | 9.0 | 24.0 | 0.01 | 0.01 | 0.01 | 93 | 1009.0 |
| 20260508052507 | 64 | 10 | 13.0 | 23.0 | 0.01 | 0.01 | 0.01 | 92 | 1009.6 |
| 20260508052006 | 64 | 14 | 12.0 | 24.0 | 0.01 | 0.01 | 0.01 | 91 | 1009.7 |
| 20260508051506 | 64 | 0 | 12.0 | 20.0 | 0.00 | 0.00 | 0.00 | 91 | 1009.7 |
| 20260508045007 | 65 | 15 | 13.0 | 22.0 | 0.00 | 0.00 | 0.00 | 88 | 1010.0 |
| 20260508044506 | 65 | 4 | 13.0 | 26.0 | 0.00 | 0.00 | 0.00 | 88 | 1010.0 |
| 20260508043505 | 65 | 3 | 12.0 | 16.0 | 0.00 | 0.00 | 0.00 | 88 | 1010.2 |
| 20260508043007 | 65 | 2 | 16.0 | 28.0 | 0.00 | 0.00 | 0.00 | 88 | 1010.3 |
| 20260508042006 | 65 | 16 | 17.0 | 26.0 | 0.00 | 0.00 | 0.00 | 87 | 1010.1 |
| 20260508041507 | 65 | 13 | 9.0 | 24.0 | 0.00 | 0.00 | 0.00 | 87 | 1010.1 |
| 20260508040506 | 65 | 18 | 13.0 | 20.0 | 0.00 | 0.00 | 0.00 | 87 | 1010.4 |
| 20260508035505 | 65 | 10 | 14.0 | 20.0 | 0.00 | 0.00 | 0.00 | 88 | 1010.9 |
| 20260508034507 | 65 | 0 | 13.0 | 20.0 | 0.00 | 0.00 | 0.00 | 88 | 1010.9 |
| 20260508034006 | 65 | 14 | 13.0 | 21.0 | 0.00 | 0.00 | 0.00 | 89 | 1010.7 |
| 20260508033505 | 65 | 4 | 7.0 | 16.0 | 0.00 | 0.00 | 0.00 | 89 | 1010.7 |
| 20260508031005 | 65 | 11 | 10.0 | 23.0 | 0.00 | 0.00 | 0.00 | 88 | 1010.7 |
| 20260508025506 | 65 | 22 | 10.0 | 20.0 | 0.00 | 0.00 | 0.00 | 87 | 1010.6 |
| 20260508025006 | 65 | 47 | 10.0 | 23.0 | 0.00 | 0.00 | 0.00 | 87 | 1010.5 |
| 20260508024507 | 65 | 50 | 7.0 | 22.0 | 0.00 | 0.00 | 0.00 | 87 | 1010.9 |
| 20260508024005 | 65 | 38 | 8.0 | 22.0 | 0.00 | 0.00 | 0.00 | 86 | 1010.7 |
| 20260508023007 | 65 | 44 | 7.0 | 21.0 | 0.00 | 0.00 | 0.00 | 87 | 1010.8 |
| 20260508022005 | 65 | 45 | 7.0 | 16.0 | 0.00 | 0.00 | 0.00 | 89 | 1011.0 |
| 20260508021507 | 65 | 89 | 7.0 | 18.0 | 0.00 | 0.00 | 0.00 | 89 | 1011.0 |
| 20260508015505 | 65 | 51 | 7.0 | 16.0 | 0.00 | 0.00 | 0.00 | 89 | 1011.3 |
| 20260508015006 | 65 | 50 | 7.0 | 18.0 | 0.00 | 0.00 | 0.00 | 89 | 1011.5 |
| 20260508014006 | 65 | 39 | 7.0 | 16.0 | 0.00 | 0.00 | 0.00 | 89 | 1011.7 |
| 20260508013505 | 65 | 50 | 7.0 | 23.0 | 0.00 | 0.00 | 0.00 | 88 | 1012.1 |
| 20260508013006 | 65 | 27 | 8.0 | 23.0 | 0.00 | 0.00 | 0.00 | 88 | 1011.8 |
| 20260508010007 | 65 | 38 | 9.0 | 20.0 | 0.00 | 0.00 | 0.00 | 89 | 1012.4 |
| 20260508003505 | 65 | 84 | 6.0 | 20.0 | 0.00 | 0.00 | 0.00 | 88 | 1012.5 |
| 20260508002005 | 65 | 49 | 5.0 | 15.0 | 0.00 | 0.00 | 0.00 | 88 | 1013.3 |
| 20260508001507 | 65 | 13 | 7.0 | 23.0 | 0.00 | 0.00 | 0.00 | 87 | 1013.5 |
| 20260508001005 | 65 | 46 | 6.0 | 14.0 | 0.00 | 0.00 | 0.00 | 87 | 1013.3 |
| 20260507235505 | 65 | 42 | 9.0 | 17.0 | 0.00 | 0.00 | 0.00 | 87 | 1013.8 |
| 20260507235006 | 65 | 55 | 7.0 | 15.0 | 0.00 | 0.00 | 0.00 | 87 | 1013.8 |
| 20260507233007 | 65 | 48 | 8.0 | 18.0 | 0.00 | 0.00 | 0.00 | 87 | 1014.0 |
| 20260507232505 | 65 | 30 | 7.0 | 17.0 | 0.00 | 0.00 | 0.00 | 87 | 1013.9 |
| 20260507225506 | 65 | 21 | 7.0 | 18.0 | 0.00 | 0.00 | 0.00 | 87 | 1014.7 |
| 20260507225006 | 65 | 31 | 5.0 | 13.0 | 0.00 | 0.00 | 0.00 | 87 | 1015.0 |
| 20260507224505 | 65 | 41 | 9.0 | 18.0 | 0.00 | 0.00 | 0.00 | 87 | 1014.8 |
| 20260507223507 | 65 | 43 | 9.0 | 16.0 | 0.00 | 0.00 | 0.00 | 87 | 1014.8 |
| 20260507222505 | 65 | 20 | 10.0 | 22.0 | 0.00 | 0.00 | 0.00 | 88 | 1015.3 |
| 20260507220504 | 65 | 10 | 16.0 | 22.0 | 0.00 | 0.00 | 0.00 | 87 | 1015.1 |
| 20260507220007 | 65 | 14 | 16.0 | 28.0 | 0.00 | 0.00 | 0.00 | 87 | 1015.3 |
| 20260507215005 | 65 | 10 | 19.0 | 28.0 | 0.00 | 0.00 | 0.00 | 86 | 1015.5 |
| 20260507214504 | 65 | 13 | 17.0 | 29.0 | 0.00 | 0.00 | 0.00 | 86 | 1015.6 |
| 20260507213005 | 65 | 19 | 13.0 | 26.0 | 0.00 | 0.00 | 0.00 | 90 | 1015.3 |
| 20260507212005 | 64 | 14 | 14.0 | 21.0 | 0.00 | 0.00 | 0.00 | 92 | 1015.4 |
| 20260507211505 | 64 | 31 | 5.0 | 17.0 | 0.00 | 0.00 | 0.00 | 92 | 1015.3 |
| 20260507205506 | 63 | 22 | 8.0 | 17.0 | 0.00 | 0.00 | 0.00 | 92 | 1015.9 |
| 20260507205005 | 63 | 12 | 9.0 | 21.0 | 0.00 | 0.00 | 0.00 | 92 | 1016.0 |
| 20260507204007 | 63 | 26 | 8.0 | 17.0 | 0.00 | 0.00 | 0.00 | 92 | 1015.9 |
| 20260507203005 | 63 | 28 | 10.0 | 18.0 | 0.00 | 0.00 | 0.00 | 92 | 1015.9 |
| 20260507202006 | 63 | 13 | 6.0 | 10.0 | 0.00 | 0.00 | 0.00 | 93 | 1015.9 |
| 20260507201505 | 63 | 36 | 7.0 | 10.0 | 0.00 | 0.00 | 0.00 | 93 | 1015.8 |
| 20260507201005 | 63 | 45 | 7.0 | 14.0 | 0.00 | 0.00 | 0.00 | 93 | 1015.7 |
| 20260507200005 | 63 | 73 | 3.0 | 12.0 | 0.00 | 0.00 | 0.00 | 93 | 1015.8 |
| 20260507195505 | 63 | 24 | 7.0 | 14.0 | 0.00 | 0.00 | 0.00 | 94 | 1016.0 |
| 20260507195006 | 63 | 12 | 6.0 | 13.0 | 0.00 | 0.00 | 0.00 | 94 | 1016.1 |
| 20260507194505 | 63 | 44 | 5.0 | 12.0 | 0.00 | 0.00 | 0.00 | 94 | 1015.9 |
| 20260507192505 | 63 | 33 | 7.0 | 15.0 | 0.00 | 0.00 | 0.00 | 94 | 1015.8 |
| 20260507192007 | 63 | 43 | 6.0 | 14.0 | 0.00 | 0.00 | 0.00 | 94 | 1015.7 |
| 20260507191005 | 63 | 33 | 6.0 | 21.0 | 0.00 | 0.00 | 0.00 | 94 | 1015.9 |
| 20260507190506 | 63 | 30 | 6.0 | 16.0 | 0.00 | 0.00 | 0.00 | 93 | 1016.0 |
| 20260507190006 | 63 | 54 | 7.0 | 16.0 | 0.00 | 0.00 | 0.00 | 93 | 1015.9 |
| 20260507185006 | 63 | 15 | 7.0 | 14.0 | 0.00 | 0.00 | 0.00 | 93 | 1015.9 |
| 20260507184504 | 63 | 51 | 6.0 | 16.0 | 0.00 | 0.00 | 0.00 | 93 | 1015.9 |
| 20260507184004 | 63 | 40 | 5.0 | 12.0 | 0.00 | 0.00 | 0.00 | 93 | 1015.8 |
| 20260507183504 | 63 | 33 | 6.0 | 15.0 | 0.00 | 0.00 | 0.00 | 93 | 1016.0 |
| 20260507182505 | 63 | 26 | 7.0 | 15.0 | 0.00 | 0.00 | 0.00 | 93 | 1016.1 |
| 20260507181005 | 63 | 35 | 7.0 | 14.0 | 0.00 | 0.00 | 0.00 | 94 | 1016.1 |
| 20260507174506 | 63 | 39 | 7.0 | 13.0 | 0.00 | 0.00 | 0.00 | 94 | 1016.2 |